Regional Weather Roundup
Issued by NWS

Home | Current Version | Previous Version | Graphics & Text | Print | Product List | Glossary On
Versions: 1 2 3 4 5 6 7 8 9 10 11 12 13 14 15 16 17 18 19 20 21 22 23 24 25 26 27 28 29 30 31 32 33 34 35 36 37 38 39 40 41 42 43 44 45 46 47 48 49 50
000
ASUS43 KLSX 221659
RWRMO

WEATHER SUMMARY FOR MISSOURI
NATIONAL WEATHER SERVICE SPRINGFIELD MO
1200 PM CDT MON SEP 22 2014

NOTE: "FAIR" INDICATES FEW OR NO CLOUDS BELOW 12,000 FEET WITH NO
       SIGNIFICANT WEATHER AND/OR OBSTRUCTIONS TO VISIBILITY.
       CURRENT SKY AND/OR WEATHER CONDITIONS ARE NOT AVAILABLE FOR
       CHILLICOTHE AND FARMINGTON.

MOZ001>031-035>038-043-044-053-054-221800-
...NORTHERN AND WESTERN MISSOURI...

CITY           SKY/WX    TMP DP  RH WIND       PRES   REMARKS
KANSAS CTY INT MOSUNNY   67  50  54 VRB3      30.32F
KANSAS C DTWN  SUNNY     69  49  48 E8        30.31F
LEE`S SUMMIT   SUNNY     68  49  50 NE5       30.32F
ST JOSEPH      SUNNY     68  51  54 SE5       30.31F
KIRKSVILLE     SUNNY     67  49  52 VRB3      30.33F

$$
MOZ066>068-077>081-088>096-101>105-221800-
...SOUTHWEST MISSOURI...

CITY           SKY/WX    TMP DP  RH WIND       PRES   REMARKS
SPRINGFIELD    SUNNY     68  50  52 CALM      30.30F
JOPLIN         SUNNY     68  50  52 NE9       30.31F

$$
MOZ032>034-039>042-045>050-055>058-069>072-221800-
...CENTRAL MISSOURI...

CITY           SKY/WX    TMP DP  RH WIND       PRES   REMARKS
COLUMBIA       SUNNY     68  50  52 NE7       30.32S
JEFFERSON CITY SUNNY     69  47  45 N7        30.31F
ROLLA          SUNNY     66  48  52 N12       30.30F
SEDALIA        SUNNY     70  51  51 NE6       30.32F
OSAGE BEACH    SUNNY     66  50  55 NE5       30.31F

$$
MOZ051-052-059>065-221800-
...EAST CENTRAL MISSOURI...

CITY           SKY/WX    TMP DP  RH WIND       PRES   REMARKS
ST LOUIS INTL  MOSUNNY   69  50  50 NW6       30.31F
SPIRIT OF STL  SUNNY     67  48  50 NE8       30.30F
ST CHARLES     SUNNY     67  50  54 MISG      30.30F

$$
MOZ072>076-082>087-097>100-106>115-221800-
...SOUTH CENTRAL AND SOUTHEAST MISSOURI...

CITY           SKY/WX    TMP DP  RH WIND       PRES   REMARKS
CAPE GIRARDEAU SUNNY     69  50  50 N6        30.27S
FARMINGTON     SUNNY     66  48  52 N8        30.32R
POPLAR BLUFF   SUNNY     70  49  47 NE7       30.26S
WEST PLAINS    MOSUNNY   68  50  52 NE8       30.31S

$$



USA.gov is the U.S. government's official web portal to all federal, state and local government web resources and services.